�������l�o���
Date,Time,MP-1(��Sv/h),MP-2(��Sv/h),MP-3(��Sv/h),MP-4(��Sv/h),MP-5(��Sv/h),MP-6(��Sv/h),MP-7(��Sv/h),MP-8(��Sv/h),����,����(m/s),���J
2015/12/16,00:00,1.677,2.657,3.118,2.877,-,0.872,1.535,1.460,�쐼,2.3,��
2015/12/16,00:10,1.680,2.655,3.113,2.877,-,0.872,1.537,1.462,��,2.6,��
2015/12/16,00:20,1.682,2.658,3.112,2.878,-,0.873,1.538,1.458,���k��,1.5,��
2015/12/16,00:30,1.680,2.657,3.113,2.877,-,0.873,1.537,1.460,�k�k��,2.0,��
2015/12/16,00:40,1.678,2.650,3.113,2.877,-,0.870,1.535,1.457,�k,2.3,��
2015/12/16,00:50,1.677,2.657,3.110,2.875,-,0.872,1.535,1.460,�k��,2.6,��
2015/12/16,01:00,1.680,2.657,3.110,2.875,-,0.873,1.535,1.460,�k��,3.2,��
2015/12/16,01:10,1.682,2.657,3.107,2.872,-,0.870,1.537,1.462,�k��,4.9,��
2015/12/16,01:20,1.678,2.653,3.113,2.875,-,0.872,1.535,1.458,�k��,4.7,��
2015/12/16,01:30,1.682,2.650,3.112,2.877,-,0.872,1.537,1.458,�k��,5.2,��
2015/12/16,01:40,1.680,2.648,3.115,2.878,-,0.870,1.535,1.460,�k��,3.9,��
2015/12/16,01:50,1.680,2.653,3.112,2.875,-,0.870,1.535,1.458,�k��,2.9,��
2015/12/16,02:00,1.677,2.655,3.107,2.873,-,0.870,1.538,1.460,�k��,2.5,��
2015/12/16,02:10,1.680,2.652,3.110,2.875,-,0.870,1.533,1.460,���k��,1.2,��
2015/12/16,02:20,1.683,2.652,3.113,2.873,-,0.872,1.533,1.458,-,CALM,��
2015/12/16,02:30,1.678,2.652,3.112,2.877,-,0.872,1.535,1.458,���k��,0.6,��
2015/12/16,02:40,1.673,2.650,3.112,2.877,-,0.870,1.537,1.458,�k��,0.9,��
2015/12/16,02:50,1.678,2.650,3.108,2.877,-,0.872,1.535,1.462,��,1.1,��
2015/12/16,03:00,1.680,2.652,3.112,2.873,-,0.872,1.535,1.460,�쓌,0.6,��
2015/12/16,03:10,1.682,2.650,3.110,2.877,-,0.872,1.533,1.462,���쓌,0.9,��
2015/12/16,03:20,1.680,2.657,3.108,2.875,-,0.870,1.537,1.460,-,CALM,��
2015/12/16,03:30,1.678,2.653,3.112,2.877,-,0.868,1.535,1.458,�쓌,1.2,��
2015/12/16,03:40,1.678,2.653,3.112,2.877,-,0.872,1.535,1.455,��,0.8,��
2015/12/16,03:50,1.680,2.652,3.112,2.877,-,0.875,1.537,1.460,�k�k��,0.9,��
2015/12/16,04:00,1.682,2.653,3.110,2.873,-,0.873,1.537,1.463,���쓌,2.0,��
2015/12/16,04:10,1.683,2.653,3.112,2.877,-,0.873,1.535,1.462,���k��,3.3,��
2015/12/16,04:20,1.683,2.653,3.112,2.875,-,0.875,1.535,1.458,��,2.3,��
2015/12/16,04:30,1.683,2.657,3.112,2.873,-,0.875,1.535,1.462,�쐼,1.4,��
2015/12/16,04:40,1.680,2.653,3.112,2.877,-,0.875,1.537,1.462,���k��,2.3,��
2015/12/16,04:50,1.680,2.652,3.112,2.877,-,0.872,1.538,1.462,��,2.6,��
2015/12/16,05:00,1.682,2.650,3.113,2.877,-,0.870,1.538,1.460,��,2.5,��
2015/12/16,05:10,1.682,2.653,3.112,2.877,-,0.872,1.538,1.460,�k�k��,0.9,��
2015/12/16,05:20,1.682,2.653,3.112,2.878,-,0.872,1.538,1.462,�k,2.0,��
2015/12/16,05:30,1.677,2.648,3.110,2.878,-,0.873,1.538,1.465,�k,2.9,��
2015/12/16,05:40,1.678,2.652,3.112,2.875,-,0.873,1.537,1.460,�k��,0.9,��
2015/12/16,05:50,1.683,2.655,3.112,2.873,-,0.870,1.538,1.462,�k�k��,2.0,��
2015/12/16,06:00,1.682,2.655,3.108,2.875,-,0.870,1.537,1.462,�k��,2.0,��
2015/12/16,06:10,1.683,2.658,3.112,2.870,-,0.868,1.535,1.460,�k�k��,2.6,��
2015/12/16,06:20,1.685,2.655,3.110,2.875,-,0.865,1.537,1.458,�k�k��,1.7,��
2015/12/16,06:30,1.683,2.650,3.110,2.877,-,0.865,1.533,1.462,�k�k��,2.8,��
2015/12/16,06:40,1.682,2.653,3.108,2.875,-,0.872,1.538,1.463,�k�k��,2.3,��
2015/12/16,06:50,1.682,2.653,3.112,2.877,-,0.870,1.538,1.462,�k�k��,4.5,��
2015/12/16,07:00,1.682,2.653,3.112,2.880,-,0.872,1.535,1.458,�k�k��,5.6,��
2015/12/16,07:10,1.685,2.652,3.113,2.875,-,0.867,1.537,1.458,�k�k��,5.5,��
2015/12/16,07:20,1.685,2.653,3.113,2.880,-,0.870,1.532,1.462,�k�k��,5.9,��
2015/12/16,07:30,1.683,2.657,3.113,2.878,-,0.868,1.537,1.457,�k�k��,4.8,��
2015/12/16,07:40,1.685,2.655,3.113,2.882,-,0.868,1.537,1.462,�k��,5.1,��
2015/12/16,07:50,1.683,2.657,3.115,2.883,-,0.867,1.537,1.462,�k��,6.0,��
2015/12/16,08:00,1.683,2.660,3.117,2.880,-,0.868,1.537,1.462,�k��,5.6,��
2015/12/16,08:10,1.683,2.655,3.115,2.878,-,0.867,1.538,1.462,�k��,4.7,��
2015/12/16,08:20,1.683,2.655,3.117,2.880,-,0.865,1.538,1.460,�k��,3.1,��
2015/12/16,08:30,1.687,2.657,3.117,2.880,-,0.865,1.538,1.462,���k��,1.4,��
2015/12/16,08:40,1.683,2.660,3.113,2.878,-,0.868,1.537,1.463,-,CALM,��
2015/12/16,08:50,1.683,2.660,3.117,2.882,-,0.870,1.538,1.462,�k��,1.2,��
2015/12/16,09:00,1.685,2.662,3.118,2.878,-,0.870,1.537,1.463,�k��,3.2,��
2015/12/16,09:10,1.685,2.660,3.118,2.882,-,0.870,1.538,1.463,���k��,2.5,��
2015/12/16,09:20,1.685,2.663,3.118,2.882,-,0.868,1.540,1.460,���쐼,1.1,��
2015/12/16,09:30,1.685,2.663,3.122,2.880,-,0.870,1.538,1.462,��쓌,2.0,��
2015/12/16,09:40,1.688,2.662,3.120,2.880,-,0.870,1.538,1.462,�쓌,2.2,��
2015/12/16,09:50,1.685,2.663,3.122,2.883,-,0.870,1.542,1.463,���쓌,1.4,��
2015/12/16,10:00,1.690,2.663,3.125,2.883,-,0.870,1.542,1.462,�쓌,2.3,��
2015/12/16,10:10,1.690,2.665,3.123,2.883,-,0.872,1.542,1.460,��쓌,2.0,��
2015/12/16,10:20,1.692,2.665,3.122,2.882,-,0.870,1.540,1.462,��,1.1,��
2015/12/16,10:30,1.688,2.662,3.123,2.885,-,0.868,1.542,1.462,-,CALM,��
2015/12/16,10:40,1.687,2.665,3.123,2.885,-,0.870,1.538,1.462,��,1.2,��
2015/12/16,10:50,1.683,2.662,3.123,2.887,-,0.872,1.540,1.460,��,1.7,��
2015/12/16,11:00,1.685,2.663,3.127,2.887,-,0.870,1.542,1.463,��,1.7,��
2015/12/16,11:10,1.688,2.663,3.125,2.885,-,0.870,1.540,1.465,���k��,2.8,��
2015/12/16,11:20,1.687,2.662,3.125,2.887,-,0.872,1.542,1.467,�k�k��,1.9,��
2015/12/16,11:30,1.688,2.663,3.127,2.887,-,0.873,1.540,1.465,�k�k��,2.0,��
2015/12/16,11:40,1.685,2.663,3.125,2.883,-,0.870,1.540,1.465,�k��,3.0,��
2015/12/16,11:50,1.685,2.665,3.132,2.885,-,0.872,1.542,1.462,�k��,3.9,��
2015/12/16,12:00,1.688,2.667,3.128,2.885,-,0.872,1.543,1.463,�k��,3.1,��
2015/12/16,12:10,1.688,2.667,3.125,2.887,-,0.872,1.542,1.465,�k�k��,3.0,��
2015/12/16,12:20,1.685,2.668,3.127,2.885,-,0.870,1.540,1.465,�k��,3.1,��
2015/12/16,12:30,1.688,2.665,3.125,2.887,-,0.870,1.542,1.467,�k�k��,3.0,��
2015/12/16,12:40,1.688,2.663,3.125,2.885,-,0.872,1.537,1.463,�k��,3.9,��
2015/12/16,12:50,1.688,2.668,3.123,2.887,-,0.872,1.537,1.463,�k��,4.1,��
2015/12/16,13:00,1.687,2.663,3.123,2.885,-,0.872,1.538,1.463,�k��,4.0,��
2015/12/16,13:10,1.692,2.665,3.128,2.887,-,0.870,1.542,1.462,�k��,4.6,��
2015/12/16,13:20,1.685,2.667,3.130,2.888,-,0.868,1.538,1.462,�k��,4.2,��
2015/12/16,13:30,1.685,2.665,3.128,2.887,-,0.870,1.538,1.463,�k��,3.8,��
2015/12/16,13:40,1.687,2.665,3.125,2.885,-,0.868,1.540,1.462,�k�k��,3.4,��
2015/12/16,13:50,1.688,2.663,3.127,2.890,-,0.868,1.538,1.463,�k�k��,3.4,��
2015/12/16,14:00,1.687,2.667,3.127,2.887,-,0.870,1.538,1.462,�k�k��,2.5,��
2015/12/16,14:10,1.688,2.668,3.125,2.883,-,0.870,1.537,1.462,�k�k��,3.1,��
2015/12/16,14:20,1.687,2.667,3.130,2.887,-,0.872,1.540,1.463,�k�k��,2.6,��
2015/12/16,14:30,1.687,2.667,3.127,2.887,-,0.872,1.540,1.460,�k�k��,1.7,��
2015/12/16,14:40,1.687,2.668,3.127,2.885,-,0.870,1.540,1.458,�k��,1.5,��
2015/12/16,14:50,1.685,2.665,3.125,2.885,-,0.872,1.538,1.462,�k��,1.4,��
2015/12/16,15:00,1.688,2.667,3.127,2.885,-,0.872,1.542,1.460,-,CALM,��
2015/12/16,15:10,1.687,2.667,3.127,2.885,-,0.872,1.540,1.462,���쓌,0.8,��
2015/12/16,15:20,1.687,2.668,3.123,2.885,-,0.872,1.540,1.463,-,CALM,��
2015/12/16,15:30,1.688,2.670,3.122,2.885,-,0.870,1.540,1.463,�k��,1.4,��
2015/12/16,15:40,1.690,2.672,3.125,2.888,-,0.873,1.540,1.462,��,1.2,�L
2015/12/16,15:50,1.687,2.668,3.123,2.887,-,0.872,1.538,1.465,�k��,2.3,��
2015/12/16,16:00,1.685,2.665,3.125,2.887,-,0.873,1.537,1.463,�k�k��,2.2,��
2015/12/16,16:10,1.688,2.663,3.123,2.883,-,0.873,1.540,1.463,�k��,2.3,��
2015/12/16,16:20,1.687,2.662,3.123,2.887,-,0.875,1.540,1.462,�k�k��,2.8,�L
2015/12/16,16:30,1.687,2.663,3.122,2.887,-,0.873,1.538,1.463,�k��,2.5,�L
2015/12/16,16:40,1.685,2.663,3.125,2.885,-,0.875,1.537,1.465,�k�k��,3.0,�L
2015/12/16,16:50,1.685,2.663,3.120,2.883,-,0.873,1.538,1.462,�k�k��,2.9,��
2015/12/16,17:00,1.687,2.665,3.122,2.885,-,0.875,1.540,1.462,�k��,2.0,��
2015/12/16,17:10,1.687,2.662,3.122,2.885,-,0.875,1.540,1.463,�k�k��,2.0,��
2015/12/16,17:20,1.688,2.665,3.122,2.883,-,0.875,1.538,1.462,�k,1.2,��
2015/12/16,17:30,1.685,2.663,3.120,2.885,-,0.873,1.540,1.462,�k��,1.5,��
2015/12/16,17:40,1.685,2.660,3.122,2.885,-,0.873,1.537,1.463,���k��,2.0,��
2015/12/16,17:50,1.685,2.660,3.120,2.885,-,0.875,1.537,1.462,�k��,2.6,��
2015/12/16,18:00,1.685,2.660,3.115,2.882,-,0.873,1.537,1.463,�k�k��,2.2,��
2015/12/16,18:10,1.682,2.660,3.118,2.885,-,0.872,1.537,1.458,�k,1.7,��
2015/12/16,18:20,1.685,2.662,3.117,2.885,-,0.872,1.540,1.462,�k��,1.2,��
2015/12/16,18:30,1.685,2.660,3.117,2.885,-,0.873,1.538,1.463,�k��,1.2,��
2015/12/16,18:40,1.685,2.660,3.118,2.885,-,0.873,1.537,1.462,���k��,0.9,��
2015/12/16,18:50,1.683,2.660,3.118,2.883,-,0.873,1.537,1.463,���k��,2.9,��
2015/12/16,19:00,1.687,2.658,3.117,2.885,-,0.873,1.538,1.463,���k��,5.0,��
2015/12/16,19:10,1.685,2.660,3.120,2.885,-,0.873,1.538,1.462,���k��,4.8,��
2015/12/16,19:20,1.687,2.663,3.122,2.887,-,0.875,1.540,1.462,���k��,6.1,��
2015/12/16,19:30,1.685,2.663,3.122,2.887,-,0.872,1.537,1.460,���k��,7.8,��
2015/12/16,19:40,1.685,2.662,3.122,2.887,-,0.872,1.540,1.465,���k��,7.8,��
2015/12/16,19:50,1.685,2.660,3.118,2.887,-,0.872,1.538,1.462,���k��,7.7,��
2015/12/16,20:00,1.685,2.660,3.120,2.887,-,0.873,1.540,1.463,���k��,7.9,��
2015/12/16,20:10,1.690,2.663,3.123,2.887,-,0.873,1.542,1.462,���k��,7.2,��
2015/12/16,20:20,1.683,2.662,3.125,2.888,-,0.873,1.540,1.463,���k��,4.9,��
2015/12/16,20:30,1.685,2.663,3.122,2.887,-,0.875,1.538,1.463,�k��,4.7,��
2015/12/16,20:40,1.683,2.662,3.125,2.887,-,0.873,1.537,1.462,�k��,5.3,��
2015/12/16,20:50,1.687,2.660,3.122,2.887,-,0.875,1.538,1.463,���k��,5.0,��
2015/12/16,21:00,1.683,2.663,3.118,2.885,-,0.872,1.538,1.467,���k��,6.3,��
2015/12/16,21:10,1.685,2.663,3.122,2.888,-,0.870,1.540,1.463,���k��,6.6,��
2015/12/16,21:20,1.685,2.665,3.118,2.887,-,0.873,1.538,1.463,���k��,6.4,��
2015/12/16,21:30,1.685,2.660,3.122,2.890,-,0.872,1.537,1.463,���k��,5.7,��
2015/12/16,21:40,1.687,2.662,3.123,2.888,-,0.873,1.540,1.465,���k��,6.0,��
2015/12/16,21:50,1.685,2.665,3.123,2.885,-,0.877,1.540,1.463,���k��,6.1,��
2015/12/16,22:00,1.687,2.663,3.123,2.887,-,0.872,1.540,1.465,���k��,7.6,��
2015/12/16,22:10,1.685,2.663,3.122,2.888,-,0.873,1.542,1.463,���k��,7.1,��
2015/12/16,22:20,1.683,2.663,3.120,2.892,-,0.872,1.540,1.460,���k��,8.0,��
2015/12/16,22:30,1.685,2.660,3.125,2.890,-,0.873,1.542,1.463,���k��,7.7,��
2015/12/16,22:40,1.687,2.660,3.122,2.890,-,0.873,1.538,1.463,���k��,8.0,��
2015/12/16,22:50,1.685,2.663,3.120,2.888,-,0.873,1.535,1.463,�k��,7.0,��
2015/12/16,23:00,1.683,2.663,3.120,2.887,-,0.872,1.538,1.465,�k��,8.0,��
2015/12/16,23:10,1.683,2.663,3.123,2.887,-,0.875,1.540,1.462,�k��,5.5,��
2015/12/16,23:20,1.685,2.662,3.122,2.888,-,0.873,1.537,1.460,�k��,6.6,��
2015/12/16,23:30,1.685,2.660,3.125,2.885,-,0.873,1.540,1.460,�k�k��,6.8,��
2015/12/16,23:40,1.685,2.663,3.122,2.888,-,0.872,1.538,1.462,�k�k��,4.5,��
2015/12/16,23:50,1.683,2.662,3.118,2.892,-,0.872,1.537,1.462,�k�k��,3.5,��
